Location: Newark
(55.7083°N, 13.1992°E)
Time: 13:38:35
(UTC+00:00)

ISS - Pass Details

Date: 27 January 2020
Orbit: 415 x 422 km, 51.6° (Epoch: 26 February)

Event Time Altitude Azimuth Distance (km) Brightness Sun altitude
Rises 16:35:41 0° 226° (SW) 2,375 1.4 -9.2°
Reaches altitude 10° 16:38:01 10° 213° (SSW) 1,511 -0.1 -9.5°
Maximum altitude 16:40:50 24° 157° (SSE) 917 -2.1 -9.9°
Enters shadow 16:43:22 12° 104° (ESE) 1,423 -1.6 -10.2°
